Change the Weather History Date:

Tuesday, October 9, 2012

  Actual Average Record
Temperature  
Mean Temperature 48 °F -  
Max Temperature 71 °F 66 °F 84 °F (1996)
Min Temperature 26 °F 35 °F 16 °F (1985)
Degree Days  
Heating Degree Days 16    
Moisture  
Dew Point 23 °F    
Average Humidity 42    
Maximum Humidity 93    
Minimum Humidity 14    
Precipitation  
Precipitation 0.00 in - - ()
Sea Level Pressure  
Sea Level Pressure 30.05 in    
Wind  
Wind Speed 9 mph (NNW)    
Max Wind Speed 18 mph    
Max Gust Speed 24 mph    
Visibility 10 miles    
Events      
Averages and records for this station are not official NWS values.
T = Trace of Precipitation, MM = Missing Value Source: NWS Daily Summary

Daily Weather History Graph

Daily Weather History Graph

Search for Another Location

Airport or City:

Trip Planner

Search our weather history database for the weather conditions in past years. The results will help you decide how hot, cold, wet, or windy it might be!

Date:

Astronomy

Oct. 09, 2012 Rise Set
Actual Time 7:08 AM PDT 6:28 PM PDT
Civil Twilight 6:40 AM PDT 6:56 PM PDT
Nautical Twilight 6:07 AM PDT 7:28 PM PDT
Astronomical Twilight 5:35 AM PDT 8:01 PM PDT
Moon 12:43 AM PDT (10/9) 3:04 PM PDT (10/9)
Length of Visible Light 12h 16m
Length of Day
11h 20m
Waning Crescent, 35% of the Moon is Illuminated
Oct 9
Waning Crescent
Oct 15
New
Oct 21
First Quarter
Oct 29
Full
Nov 6
Last Quarter

Hourly Weather History & Observations

Time (PDT) Temp. Windchill Dew Point Humidity Pressure Visibility Wind Dir Wind Speed Gust Speed Precip Events Conditions
12:15 AM 48.2 °F - 33.8 °F 58% 30.07 in 10.0 mi SSE 11.5 mph - N/A   Clear
12:55 AM 44.6 °F 39.2 °F 32.0 °F 61% 30.07 in 10.0 mi SSE 10.4 mph - N/A   Clear
1:15 AM 42.8 °F 39.3 °F 32.0 °F 66% 30.07 in 10.0 mi South 5.8 mph - N/A   Clear
1:35 AM 37.4 °F 32.8 °F 28.4 °F 70% 30.07 in 10.0 mi NW 5.8 mph - N/A   Clear
1:55 AM 35.6 °F 29.9 °F 28.4 °F 75% 30.07 in 10.0 mi North 6.9 mph - N/A   Clear
2:15 AM 33.8 °F 27.0 °F 26.6 °F 75% 30.07 in 10.0 mi North 8.1 mph - N/A   Clear
2:35 AM 33.8 °F 27.0 °F 26.6 °F 75% 30.08 in 10.0 mi North 8.1 mph - N/A   Clear
2:55 AM 32.0 °F 27.5 °F 26.6 °F 80% 30.08 in 10.0 mi North 4.6 mph - N/A   Clear
3:15 AM 30.2 °F 22.6 °F 24.8 °F 80% 30.08 in 10.0 mi North 8.1 mph - N/A   Clear
3:35 AM 30.2 °F 23.4 °F 26.6 °F 86% 30.08 in 10.0 mi NNW 6.9 mph - N/A   Clear
3:55 AM 30.2 °F 22.6 °F 26.6 °F 86% 30.09 in 10.0 mi North 8.1 mph - N/A   Clear
4:15 AM 30.2 °F 21.9 °F 26.6 °F 86% 30.08 in 10.0 mi NNW 9.2 mph - N/A   Clear
4:55 AM 28.4 °F 21.2 °F 24.8 °F 86% 30.09 in 10.0 mi NNW 6.9 mph - N/A   Clear
5:15 AM 30.2 °F 23.4 °F 24.8 °F 80% 30.08 in 10.0 mi NW 6.9 mph - N/A   Clear
5:35 AM 28.4 °F 22.2 °F 24.8 °F 86% 30.09 in 10.0 mi NNW 5.8 mph - N/A   Clear
5:55 AM 28.4 °F 22.2 °F 26.6 °F 93% 30.09 in 10.0 mi NNW 5.8 mph - N/A   Clear
6:15 AM 26.6 °F 20.0 °F 23.0 °F 86% 30.09 in 10.0 mi NNW 5.8 mph - N/A   Clear
6:55 AM 26.6 °F 18.2 °F 24.8 °F 93% 30.09 in 10.0 mi NNW 8.1 mph - N/A   Clear
7:35 AM 26.6 °F - 23.0 °F 86% 30.09 in 10.0 mi Calm Calm - N/A   Clear
8:15 AM 35.6 °F 29.9 °F 30.2 °F 81% 30.09 in 10.0 mi NNW 6.9 mph - N/A   Clear
8:35 AM 41.0 °F 37.1 °F 32.0 °F 70% 30.09 in 10.0 mi NNW 5.8 mph - N/A   Clear
8:55 AM 44.6 °F - 32.0 °F 61% 30.09 in 10.0 mi Calm Calm - N/A   Clear
9:15 AM 48.2 °F - 33.8 °F 58% 30.10 in 10.0 mi NNE 4.6 mph - N/A   Clear
9:35 AM 48.2 °F - 33.8 °F 58% 30.10 in 10.0 mi ESE 3.5 mph - N/A   Clear
9:55 AM 50.0 °F - 35.6 °F 58% 30.10 in 10.0 mi ESE 4.6 mph - N/A   Clear
10:15 AM 53.6 °F - 35.6 °F 51% 30.09 in 10.0 mi Calm Calm - N/A   Clear
10:35 AM 57.2 °F - 30.2 °F 36% 30.09 in 10.0 mi North 10.4 mph - N/A   Clear
10:55 AM 59.0 °F - 24.8 °F 27% 30.09 in 10.0 mi NNE 8.1 mph - N/A   Clear
11:15 AM 60.8 °F - 24.8 °F 25% 30.08 in 10.0 mi North 9.2 mph - N/A   Clear
11:35 AM 62.6 °F - 24.8 °F 24% 30.07 in 10.0 mi North 10.4 mph - N/A   Clear
11:55 AM 62.6 °F - 24.8 °F 24% 30.07 in 10.0 mi North 10.4 mph - N/A   Clear
12:15 PM 64.4 °F - 23.0 °F 21% 30.06 in 10.0 mi North 9.2 mph - N/A   Clear
12:35 PM 66.2 °F - 23.0 °F 19% 30.06 in 10.0 mi NNW 12.7 mph - N/A   Clear
12:55 PM 66.2 °F - 21.2 °F 18% 30.05 in 10.0 mi NNW 13.8 mph 19.6 mph N/A   Clear
1:15 PM 68.0 °F - 21.2 °F 17% 30.04 in 10.0 mi NNW 13.8 mph 21.9 mph N/A   Clear
1:55 PM 69.8 °F - 21.2 °F 16% 30.02 in 10.0 mi North 17.3 mph - N/A   Clear
2:15 PM 69.8 °F - 21.2 °F 16% 30.01 in 10.0 mi North 16.1 mph 24.2 mph N/A   Clear
2:35 PM 69.8 °F - 21.2 °F 16% 30.01 in 10.0 mi North 17.3 mph 23.0 mph N/A   Clear
2:55 PM 69.8 °F - 21.2 °F 16% 30.01 in 10.0 mi North 18.4 mph 24.2 mph N/A   Clear
3:15 PM 69.8 °F - 19.4 °F 15% 30.01 in 10.0 mi North 15.0 mph 24.2 mph N/A   Clear
3:35 PM 69.8 °F - 19.4 °F 15% 30.01 in 10.0 mi North 16.1 mph 23.0 mph N/A   Clear
3:55 PM 71.6 °F - 19.4 °F 14% 30.01 in 10.0 mi North 17.3 mph 21.9 mph N/A   Clear
4:15 PM 71.6 °F - 19.4 °F 14% 30.00 in 10.0 mi North 17.3 mph 20.7 mph N/A   Clear
4:35 PM 69.8 °F - 19.4 °F 15% 30.00 in 10.0 mi North 16.1 mph 21.9 mph N/A   Clear
4:55 PM 69.8 °F - 19.4 °F 15% 30.00 in 10.0 mi North 16.1 mph 23.0 mph N/A   Clear
5:15 PM 66.2 °F - 17.6 °F 15% 30.00 in 10.0 mi North 17.3 mph 23.0 mph N/A   Clear
5:35 PM 66.2 °F - 17.6 °F 15% 30.00 in 10.0 mi North 13.8 mph 21.9 mph N/A   Clear
5:55 PM 64.4 °F - 17.6 °F 16% 30.00 in 10.0 mi North 12.7 mph - N/A   Clear
6:15 PM 62.6 °F - 17.6 °F 18% 30.00 in 10.0 mi North 9.2 mph - N/A   Clear
6:35 PM 59.0 °F - 15.8 °F 19% 30.00 in 10.0 mi North 8.1 mph - N/A   Clear
6:55 PM 55.4 °F - 15.8 °F 21% 30.01 in 10.0 mi NW 10.4 mph - N/A   Clear
7:15 PM 55.4 °F - 15.8 °F 21% 30.01 in 10.0 mi NNW 13.8 mph - N/A   Clear
7:35 PM 55.4 °F - 15.8 °F 21% 30.01 in 10.0 mi NNW 13.8 mph - N/A   Clear
7:55 PM 55.4 °F - 15.8 °F 21% 30.02 in 10.0 mi NNW 15.0 mph - N/A   Clear
8:15 PM 55.4 °F - 15.8 °F 21% 30.02 in 10.0 mi North 13.8 mph - N/A   Clear
8:35 PM 57.2 °F - 15.8 °F 20% 30.03 in 10.0 mi North 12.7 mph - N/A   Clear
8:55 PM 57.2 °F - 15.8 °F 20% 30.03 in 10.0 mi NNE 10.4 mph - N/A   Clear
9:15 PM 55.4 °F - 15.8 °F 21% 30.03 in 10.0 mi North 11.5 mph - N/A   Clear
9:35 PM 51.8 °F - 15.8 °F 24% 30.03 in 10.0 mi NNW 12.7 mph - N/A   Clear
9:55 PM 50.0 °F - 15.8 °F 26% 30.03 in 10.0 mi NNW 11.5 mph - N/A   Clear
10:15 PM 48.2 °F - 17.6 °F 30% 30.04 in 10.0 mi North 6.9 mph - N/A   Clear
10:35 PM 44.6 °F 39.7 °F 15.8 °F 31% 30.04 in 10.0 mi NNW 9.2 mph - N/A   Clear
10:55 PM 51.8 °F - 17.6 °F 26% 30.04 in 10.0 mi NNW 12.7 mph - N/A   Clear
11:15 PM 48.2 °F - 15.8 °F 27% 30.05 in 10.0 mi NW 6.9 mph - N/A   Clear
11:35 PM 44.6 °F 40.2 °F 17.6 °F 34% 30.05 in 10.0 mi WNW 8.1 mph - N/A   Clear
11:55 PM 42.8 °F 38.0 °F 17.6 °F 36% 30.05 in 10.0 mi NNW 8.1 mph - N/A   Clear